FLOCK 2K-24

Last updated on Wed Feb 14 2018 16:20:52 GMT+0000 (Coordinated Universal Time)

1 42857U 17042AJ 18044.95036572 .00004207 00000-0 12522-3 0 9992 2 42857 96.9927 307.7167 0010235 185.6876 174.4254 15.35178573 32718
UTC large
Height (km)
Speed (km/s)
/
Latitude / Longitude
Inclination (degrees)
Orbital Period (minutes)
Azimuth
Elevation
Range (km)
Doppler Factor

Next 0 passes for location: London (51.5072 / 0.1276)

Sorry there are no passes over London.